Jackson Hawkins Field, MS

4:33 AM CST on December 17, 2017 (GMT -0600)
Hawkins

Weather History for KHKS - March, 2014

Change the Weather History Date:

Saturday, March 1, 2014

  Actual Average Record
Temperature  
Mean Temperature 65 °F 54 °F  
Max Temperature 78 °F 65 °F 81 °F (2012)
Min Temperature 52 °F 44 °F 30 °F (2009)
Degree Days  
Heating Degree Days 0 11  
Month to date heating degree days 11  
Since 1 July heating degree days 1874  
Cooling Degree Days 0 1  
Month to date cooling degree days 1  
Year to date cooling degree days 13  
Growing Degree Days 15 (Base 50)    
Moisture  
Dew Point 51 °F    
Average Humidity 66    
Maximum Humidity 80    
Minimum Humidity 43    
Precipitation  
Precipitation 0.00 in 0.16 in 1.49 in (2001)
Month to date precipitation 0.16  
Year to date precipitation 9.56  
Sea Level Pressure  
Sea Level Pressure 30.07 in    
Wind  
Wind Speed 8 mph (South)    
Max Wind Speed 13 mph    
Max Gust Speed -    
Visibility 10 miles    
Events      
T = Trace of Precipitation, MM = Missing Value Source: NWS Daily Summary

Daily Weather History Graph

Daily Weather History Graph

Search for Another Location

Airport or City:

Trip Planner

Search our weather history database for the weather conditions in past years. The results will help you decide how hot, cold, wet, or windy it might be!

Date:

Astronomy

Mar. 01, 2014 Rise Set
Actual Time 6:28 AM CST 5:58 PM CST
Civil Twilight 6:03 AM CST 6:23 PM CST
Nautical Twilight 5:35 AM CST 6:51 PM CST
Astronomical Twilight 5:06 AM CST 7:19 PM CST
Moon 6:25 AM CST (3/1) 6:40 PM CST (3/1)
Length of Visible Light 12h 19m
Length of Day
11h 30m
New Moon, 0% of the Moon is Illuminated
Mar 1
New Moon
Mar 8
First Quarter
Mar 16
Full
Mar 23
Last Quarter
Mar 30
New

Hourly Weather History & Observations

Time (CST) Temp. Dew Point Humidity Pressure Visibility Wind Dir Wind Speed Gust Speed Precip Events Conditions
12:53 AM 54.0 °F 43.0 °F 66% 30.03 in 10.0 mi South 9.2 mph - N/A   Overcast
1:53 AM 54.0 °F 44.1 °F 69% 30.03 in 10.0 mi SSE 6.9 mph - N/A   Overcast
2:31 AM 53.6 °F 44.6 °F 72% 30.05 in 10.0 mi SSE 8.1 mph - N/A   Overcast
2:53 AM 53.1 °F 44.1 °F 71% 30.04 in 10.0 mi SSE 6.9 mph - N/A   Overcast
3:31 AM 53.6 °F 44.6 °F 72% 30.06 in 10.0 mi SSE 6.9 mph - N/A   Overcast
3:53 AM 53.1 °F 45.0 °F 74% 30.05 in 10.0 mi SSE 5.8 mph - N/A   Overcast
4:53 AM 53.1 °F 46.0 °F 77% 30.07 in 10.0 mi SSE 5.8 mph - N/A   Overcast
5:53 AM 52.0 °F 46.0 °F 80% 30.08 in 10.0 mi SE 4.6 mph - N/A   Mostly Cloudy
6:53 AM 54.0 °F 46.9 °F 77% 30.10 in 10.0 mi South 6.9 mph - N/A   Overcast
7:53 AM 57.0 °F 48.9 °F 74% 30.11 in 10.0 mi South 6.9 mph - N/A   Overcast
8:53 AM 60.1 °F 51.1 °F 72% 30.13 in 10.0 mi South 5.8 mph - N/A   Overcast
9:53 AM 64.0 °F 53.1 °F 67% 30.13 in 10.0 mi South 8.1 mph - N/A   Overcast
10:53 AM 68.0 °F 55.0 °F 63% 30.12 in 10.0 mi SSW 8.1 mph - N/A   Overcast
11:53 AM 72.0 °F 55.9 °F 57% 30.10 in 10.0 mi SSE 8.1 mph - N/A   Overcast
12:53 PM 73.9 °F 55.9 °F 53% 30.07 in 10.0 mi SW 8.1 mph - N/A   Overcast
1:53 PM 75.9 °F 55.9 °F 50% 30.05 in 10.0 mi South 8.1 mph - N/A   Mostly Cloudy
2:53 PM 77.0 °F 55.9 °F 48% 30.04 in 10.0 mi South 11.5 mph - N/A   Mostly Cloudy
3:53 PM 78.1 °F 54.0 °F 43% 30.03 in 10.0 mi SW 5.8 mph - N/A   Partly Cloudy
4:53 PM 75.9 °F 55.0 °F 48% 30.04 in 10.0 mi SSE 8.1 mph - N/A   Scattered Clouds
5:53 PM 72.0 °F 55.0 °F 55% 30.04 in 10.0 mi South 5.8 mph - N/A   Partly Cloudy
6:53 PM 70.0 °F 55.0 °F 59% 30.05 in 10.0 mi South 3.5 mph - N/A   Partly Cloudy
7:53 PM 66.9 °F 55.0 °F 66% 30.06 in 10.0 mi SSE 5.8 mph - N/A   Partly Cloudy
8:53 PM 66.0 °F 55.9 °F 70% 30.07 in 10.0 mi South 6.9 mph - N/A   Mostly Cloudy
9:53 PM 66.0 °F 55.9 °F 70% 30.08 in 10.0 mi South 9.2 mph - N/A   Clear
10:53 PM 66.0 °F 57.0 °F 73% 30.08 in 10.0 mi South 12.7 mph - N/A   Clear
11:53 PM 64.0 °F 57.0 °F 78% 30.07 in 10.0 mi South 11.5 mph - N/A   Clear